Theta_e
325 326 326 321 326 323 324 317 314 314 315 307 304 306 304 300 307 319 298 298 298 303 307 313 320 333 332 333 333 331 330 330 329 330 330 330 331 332 335 334 334 334 334 334 333 332 332 329 329
324 328 326 318 327 329 317 309 309 308 308 307 302 302 300 299 296 295 295 295 295 299 306 309 315 331 332 331 332 332 330 330 329 328 328 327 328 329 331 331 330 331 332 332 332 331 327 327 329
324 326 326 323 319 319 314 301 300 302 303 308 302 297 296 293 294 294 293 294 296 297 305 304 312 323 328 328 328 328 328 328 328 328 327 328 327 327 329 328 328 328 327 327 328 329 328 326 326
323 321 318 320 313 300 297 298 296 301 301 299 300 297 294 292 292 292 292 293 293 298 303 303 306 315 321 324 325 325 325 325 325 324 324 323 324 325 325 326 327 327 327 327 329 328 326 321 319
319 319 322 314 305 298 295 294 296 296 297 297 301 296 293 292 291 291 293 292 292 295 299 304 301 307 312 317 319 320 321 321 321 321 320 322 322 321 321 323 323 323 323 325 325 326 326 325 324
323 318 323 318 304 299 298 294 295 294 294 294 296 293 290 291 290 291 292 291 292 293 295 296 303 300 304 308 310 312 314 316 318 320 321 322 322 322 322 322 319 319 321 321 323 325 325 325 324
318 317 315 310 305 302 297 295 294 294 293 292 292 293 291 291 291 290 291 291 292 292 293 293 297 302 299 300 303 306 307 308 314 317 318 318 319 319 318 321 320 320 318 321 323 324 325 326 326
316 315 311 308 308 299 297 295 294 293 293 293 292 293 292 292 291 290 291 291 291 292 292 293 293 295 300 299 298 298 303 306 308 310 312 311 309 312 311 309 307 313 316 315 319 323 322 322 323
305 310 306 305 304 297 295 295 293 293 293 293 293 293 292 291 291 291 290 290 291 291 291 292 292 292 293 293 296 299 296 298 302 305 305 306 301 299 297 293 294 296 299 301 303 308 312 314 315
302 302 300 299 298 298 296 295 294 294 293 293 293 292 292 291 291 290 290 290 290 291 291 291 290 291 291 291 290 291 291 291 291 292 292 292 292 291 291 291 291 292 292 292 293 296 296 301 300
300 299 298 297 296 295 294 293 294 295 294 293 293 292 291 291 290 290 290 290 290 290 291 290 290 289 290 290 290 290 290 290 290 290 290 290 290 290 290 290 290 290 290 291 291 292 292 291 292
300 298 298 299 297 295 294 293 292 292 291 291 290 290 290 290 290 289 289 290 290 290 290 290 290 290 289 289 289 289 289 289 289 289 289 289 289 289 288 288 288 288 288 289 289 290 290 290 290
298 297 296 295 295 295 294 293 293 293 292 291 291 291 291 290 290 289 289 289 290 290 290 290 289 289 289 289 288 288 288 287 287 287 287 288 287 287 287 287 287 287 287 287 288 288 288 289 289
297 298 299 297 296 296 295 294 295 294 293 293 293 292 291 291 290 290 289 289 289 289 290 290 289 289 288 288 288 288 287 287 287 287 287 287 287 287 286 286 286 286 286 286 286 287 287 287 288
299 300 299 301 298 298 300 296 295 294 294 295 294 293 292 291 291 290 289 289 289 289 289 290 289 288 288 287 287 287 287 287 286 286 286 286 286 286 286 286 285 285 285 286 286 286 286 287 287
305 303 303 300 303 303 301 296 296 295 295 295 295 294 293 292 291 289 289 288 288 289 290 290 289 288 288 287 287 287 287 287 286 286 286 286 286 286 286 285 285 285 285 285 285 285 285 285 286
298 303 301 299 298 300 298 294 296 295 295 295 295 293 293 292 291 290 288 288 288 288 288 289 289 288 288 287 287 287 287 287 286 286 286 286 286 286 286 285 285 285 285 285 285 284 284 284 285
302 298 298 297 295 293 294 295 296 295 294 294 291 291 291 290 290 290 289 288 288 288 288 288 288 288 288 287 287 287 287 287 286 286 286 286 286 286 286 285 285 284 284 284 284 284 284 283 284
296 297 297 296 295 295 292 293 292 290 293 292 289 288 289 288 290 290 290 289 288 288 288 288 288 288 288 288 288 287 286 286 286 286 286 286 286 285 285 285 285 284 284 283 283 283 283 283 283
296 296 297 296 293 293 292 292 290 289 288 289 288 287 287 288 288 289 289 289 289 288 288 287 288 288 288 288 288 287 287 287 286 286 286 286 286 286 285 285 285 284 284 283 283 282 282 282 283
297 297 298 297 295 291 292 295 289 289 288 288 287 287 287 287 287 287 288 289 289 288 288 288 287 287 288 288 288 288 287 287 287 287 287 287 287 286 286 285 285 284 284 283 282 282 282 282 282
298 297 297 297 299 295 296 294 297 289 288 288 288 286 287 287 287 288 288 288 289 289 288 288 288 287 287 287 287 288 287 287 287 287 287 287 287 287 286 286 285 284 284 284 282 282 282 281 281
299 297 299 300 298 294 296 290 293 291 290 290 288 287 287 287 286 287 288 289 289 289 289 288 288 288 287 287 287 287 287 287 287 287 287 287 287 287 287 286 286 285 284 284 283 282 282 281 281
296 297 297 296 296 291 291 291 292 294 294 292 290 289 288 287 287 288 289 289 288 288 288 288 288 288 288 288 287 287 287 287 287 287 287 287 287 287 287 287 286 286 285 284 284 283 282 281 281
296 298 290 292 292 294 293 290 294 292 292 292 292 290 288 287 287 287 288 288 288 288 288 288 288 288 288 288 288 288 288 288 288 287 287 287 287 287 287 287 287 286 286 285 284 283 283 282 281
294 295 291 286 293 292 289 292 295 291 291 292 291 290 289 288 287 287 288 289 289 289 288 288 289 288 288 288 288 288 288 288 288 288 288 287 287 287 287 287 287 287 286 285 285 284 283 282 281
290 294 290 281 271 286 291 291 293 290 294 293 292 290 289 288 287 287 288 289 289 289 289 288 288 288 289 289 289 288 288 288 288 288 288 288 287 287 287 287 286 287 286 286 285 284 283 282 281
290 290 290 284 288 287 292 292 296 294 293 294 293 292 290 288 288 287 288 288 290 290 289 289 288 288 288 288 288 288 288 288 288 288 288 288 288 288 288 287 287 286 286 286 285 284 283 281 281
288 289 289 288 289 290 289 294 293 295 292 293 294 293 292 289 288 288 288 288 290 291 290 289 289 288 288 288 288 288 288 288 288 288 288 288 288 288 288 287 287 286 286 286 285 284 282 281 279
288 289 290 291 288 287 289 291 293 293 292 291 292 293 291 290 289 288 288 288 289 290 290 290 289 289 289 289 288 288 288 288 288 288 289 288 288 288 288 287 287 286 286 285 284 283 282 280 278
Wind_Speed
13 6 3 1 3 5 3 4 2 8 3 2 11 4 9 8 5 2 19 9 23 19 24 31 38 12 15 19 22 21 21 20 19 19 19 19 19 18 20 21 20 18 16 15 16 15 14 12 11
11 1 6 2 4 4 2 2 6 6 8 7 7 3 9 5 5 11 12 29 22 20 20 30 34 24 24 21 22 23 21 20 19 19 20 20 20 19 19 18 16 17 17 16 15 14 12 12 11
4 6 3 2 3 4 4 2 4 6 10 4 4 7 4 5 13 10 20 23 17 19 14 27 29 28 24 21 20 19 20 20 20 20 21 21 21 20 20 20 19 19 17 15 15 13 12 11 10
3 6 3 3 7 4 3 5 7 4 3 11 9 8 6 11 6 13 18 15 17 17 11 20 26 25 23 21 21 21 21 19 19 20 20 19 21 20 18 18 17 17 16 15 15 14 12 11 11
5 3 4 6 4 4 7 8 12 9 4 11 4 5 5 8 15 15 16 17 20 18 13 12 19 24 24 21 21 22 22 21 22 21 20 19 20 20 20 21 16 15 16 16 14 13 13 13 12
3 3 3 2 5 3 4 13 5 9 10 6 7 5 4 12 20 16 18 20 18 15 13 18 11 19 24 23 23 23 22 19 18 17 17 16 15 14 16 15 17 18 16 14 12 10 9 8 9
4 3 4 7 7 2 4 4 10 7 10 7 10 4 3 19 21 16 17 20 16 18 17 21 20 14 20 21 23 23 23 22 19 17 16 15 13 13 13 12 14 15 15 15 12 11 10 9 9
3 4 4 5 4 3 2 2 2 11 6 3 9 5 3 11 16 14 17 21 19 22 22 20 19 19 22 21 24 24 23 21 21 20 17 18 20 18 17 17 18 13 11 13 11 9 9 9 9
6 4 4 4 3 5 7 3 3 3 9 12 7 8 6 9 11 18 21 22 24 23 26 23 22 19 17 21 25 28 29 26 24 22 21 18 20 20 21 25 25 24 21 19 18 14 12 10 10
7 5 5 4 3 4 6 4 3 3 8 11 8 14 14 14 15 17 18 21 23 26 23 24 22 22 23 21 27 29 29 29 29 27 26 26 25 26 26 26 27 24 24 23 23 19 19 18 18
7 5 5 9 11 9 5 4 3 6 9 3 5 8 14 15 15 16 16 18 20 21 24 23 23 26 25 25 28 30 30 30 30 29 28 28 27 28 28 28 28 28 27 27 25 25 25 24 23
8 16 10 3 7 5 3 3 5 9 4 4 6 7 10 14 14 15 15 17 22 21 22 22 21 22 25 26 28 29 32 31 33 31 30 30 31 31 32 32 32 31 31 30 29 29 27 26 25
12 10 15 15 15 14 11 11 6 9 5 4 7 10 10 10 12 14 15 13 16 20 20 18 19 21 22 26 28 31 32 33 33 33 33 32 33 33 33 33 33 33 32 33 32 31 30 30 28
10 15 7 8 10 6 7 6 1 3 2 2 3 4 4 4 5 8 12 14 15 14 15 17 17 20 23 25 27 29 30 32 34 33 33 32 33 33 33 34 34 34 34 33 34 33 34 34 33
12 8 7 2 1 3 2 7 5 2 5 3 3 2 1 1 1 2 2 7 9 9 10 12 14 19 23 25 26 28 30 31 33 32 31 31 31 31 32 33 33 33 34 34 36 36 36 37 35
1 0 3 4 1 3 2 2 2 4 4 6 4 3 2 2 1 2 2 4 6 7 9 11 12 15 20 21 23 26 26 27 28 28 29 29 29 30 31 32 32 32 34 35 37 38 38 40 37
8 3 5 3 5 1 3 3 5 6 4 6 5 2 1 3 2 3 4 4 7 8 9 10 11 13 15 17 21 23 22 23 24 24 25 26 26 27 28 29 29 31 32 34 35 36 36 40 36
3 5 4 4 6 7 5 2 5 6 5 7 6 3 2 3 4 6 5 3 4 6 8 8 9 10 11 14 17 18 19 19 19 20 21 21 23 24 25 26 27 28 30 32 33 33 34 36 35
8 6 5 2 3 4 4 1 7 6 5 7 6 6 5 5 5 7 6 5 4 4 4 5 7 8 6 7 9 13 15 15 16 16 17 19 20 21 23 23 24 25 27 28 30 31 33 36 38
7 7 3 1 3 3 3 6 8 6 5 7 7 7 7 5 7 10 10 11 9 8 6 5 5 6 7 8 9 8 8 11 13 13 14 15 16 18 20 22 22 23 23 24 26 29 29 26 31
5 5 2 2 2 3 2 6 6 6 6 7 8 9 7 9 8 11 14 15 14 13 11 8 6 4 4 5 6 5 6 7 8 9 11 12 13 15 17 18 19 20 21 21 22 23 23 22 24
3 2 3 4 3 1 4 4 5 6 9 9 11 10 10 9 8 15 18 18 19 18 14 12 10 7 6 4 3 3 3 3 3 4 6 8 10 11 13 14 16 17 18 19 19 19 19 21 20
3 2 3 2 3 3 1 3 6 3 8 14 15 13 12 11 9 14 22 22 20 17 19 16 13 12 10 7 5 3 3 2 2 3 5 6 7 9 10 12 14 16 17 18 18 19 19 18 18
2 3 4 3 3 3 4 4 5 6 9 5 14 15 15 13 12 22 26 22 21 20 19 20 18 16 13 12 11 10 9 7 7 6 7 7 8 9 9 11 12 14 16 18 19 19 19 19 18
3 3 3 5 4 4 2 2 11 7 8 8 13 15 15 13 12 16 21 23 23 23 23 21 20 20 17 17 16 14 13 12 12 11 11 12 12 11 11 12 13 14 15 16 17 18 19 19 20
2 4 4 5 2 4 4 6 6 6 7 7 7 10 10 13 13 16 25 30 28 26 24 23 22 21 20 20 19 18 18 18 17 16 15 16 15 14 13 14 14 14 15 16 17 19 19 20 21
3 3 3 7 1 3 3 7 10 6 7 7 10 8 12 15 15 17 24 32 33 29 28 27 26 25 23 23 22 21 20 20 20 18 18 19 18 17 16 16 16 16 16 17 18 20 21 22 24
2 5 3 3 0 5 5 6 7 5 10 9 10 13 12 11 12 16 25 33 38 35 31 28 28 28 25 24 23 23 22 21 21 20 20 19 19 19 19 18 18 18 19 19 20 21 23 23 25
3 3 3 3 4 5 2 6 8 10 10 15 16 14 12 13 15 16 26 30 39 38 35 31 30 29 28 27 25 23 22 21 20 20 20 20 20 20 20 20 21 21 21 21 21 22 24 24 26
2 5 6 4 6 4 2 9 5 9 7 9 12 13 10 11 13 17 22 26 33 39 38 36 33 31 29 28 26 26 24 21 22 21 22 21 22 21 21 21 22 22 22 22 22 24 25 26 26
Wind_Direction
343 346 317 62 96 70 118 92 63 1 50 103 43 26 93 50 28 111 321 310 334 337 353 14 16 42 95 92 88 85 79 77 76 74 73 70 69 69 63 64 64 64 64 67 67 59 48 40 40
348 52 37 71 121 142 201 350 85 356 314 142 66 345 44 65 34 325 349 330 335 344 353 18 7 41 80 85 82 81 85 81 79 77 74 72 69 65 60 57 62 54 50 48 46 44 37 27 26
344 31 81 88 85 116 148 17 356 302 30 7 103 45 56 359 345 349 331 327 341 347 359 19 12 33 69 80 86 86 84 84 80 78 82 78 76 73 66 62 55 52 49 43 39 37 34 32 25
14 39 53 49 86 50 50 16 333 338 13 21 112 69 85 38 7 340 344 347 4 353 4 15 21 37 56 76 80 88 91 93 89 81 81 79 75 71 71 65 68 63 57 50 41 36 28 25 20
54 68 86 85 66 107 58 19 37 58 54 29 352 115 79 21 7 7 9 14 5 7 24 25 23 40 49 64 73 78 79 81 79 78 78 75 73 69 63 60 65 60 50 45 41 40 41 26 22
55 88 84 103 94 119 71 22 22 34 29 347 75 87 76 12 7 12 20 19 13 15 37 43 37 45 51 52 62 67 73 79 83 82 82 80 74 66 56 55 52 48 45 39 39 40 36 31 20
84 55 74 88 115 123 52 12 33 37 28 17 321 69 92 15 8 14 22 23 24 29 35 51 36 62 71 55 58 63 70 70 80 83 80 78 77 73 71 58 48 40 39 37 34 35 35 31 25
54 79 89 39 162 60 67 77 17 30 24 292 11 44 36 338 7 30 31 27 35 38 35 47 48 36 59 73 81 61 74 76 81 82 81 76 70 65 61 55 48 48 30 28 23 18 22 23 13
351 67 58 45 93 147 171 102 13 26 62 58 54 52 12 3 30 41 28 24 28 36 38 42 59 57 52 50 64 83 79 78 80 79 76 73 68 64 63 60 55 53 49 47 42 31 16 15 15
45 64 42 2 48 100 77 80 96 89 59 49 34 31 30 36 37 39 25 11 19 25 29 38 53 63 68 65 74 77 79 79 77 75 74 72 70 67 65 62 59 57 52 50 47 43 40 33 24
31 80 108 67 81 83 77 66 36 112 62 38 42 12 21 32 32 34 26 26 11 24 28 40 43 62 67 67 69 73 75 73 71 71 72 70 68 64 60 55 50 48 46 45 43 40 38 35 29
96 54 60 74 40 61 57 70 75 45 73 47 35 30 33 36 21 26 15 16 27 28 29 41 51 58 66 70 70 72 73 73 71 68 68 66 64 61 57 54 50 47 43 42 40 37 34 33 32
61 77 74 86 80 72 85 72 70 59 66 47 31 31 31 25 34 22 31 36 37 36 44 47 60 65 69 74 73 74 73 73 72 69 67 66 65 62 59 56 52 47 44 41 39 37 33 29 28
118 100 100 71 82 91 73 40 29 9 164 63 31 15 8 26 4 11 23 30 40 40 46 57 67 74 79 78 79 77 76 75 73 69 67 64 64 61 58 55 51 48 44 41 38 35 32 29 27
128 95 115 80 104 159 290 32 20 284 306 323 358 318 19 52 314 68 46 52 43 41 56 63 58 75 77 78 80 79 77 74 72 70 67 65 62 61 58 54 50 46 43 41 37 33 30 28 28
56 222 53 8 223 93 242 286 286 245 315 331 323 293 335 351 355 52 113 98 95 88 71 77 83 82 85 83 82 78 77 75 73 69 66 63 60 57 55 51 48 44 41 39 37 31 27 25 23
27 50 17 340 5 16 12 203 225 232 245 289 298 253 256 264 228 178 131 119 95 101 107 108 103 91 86 83 81 79 76 75 72 68 63 60 57 54 52 49 44 41 39 37 35 34 28 22 19
123 97 39 22 343 30 47 103 186 226 233 260 277 240 238 234 221 195 174 171 116 101 103 109 109 101 95 87 81 80 78 73 70 66 61 56 52 49 48 46 42 38 37 34 32 31 30 23 16
110 95 101 315 309 45 13 320 243 247 233 260 258 247 225 232 226 194 190 193 184 144 119 107 107 104 116 107 92 77 70 72 68 62 58 54 48 46 42 41 38 36 35 33 30 27 25 24 18
75 99 66 53 30 65 323 278 251 241 244 224 234 239 229 219 205 209 210 210 205 196 179 155 128 119 105 94 88 89 87 72 65 59 55 50 45 41 38 35 33 31 28 29 28 27 24 24 23
32 96 155 135 49 82 17 283 239 238 225 225 226 226 221 213 212 213 210 212 213 211 205 199 175 148 131 117 113 112 95 82 71 57 51 44 38 35 31 30 27 27 24 25 25 24 22 19 23
65 7 76 103 56 190 74 277 262 226 245 230 232 218 223 214 214 217 216 214 215 214 209 211 205 198 197 184 160 125 107 85 58 34 33 33 29 26 23 20 21 20 18 18 19 17 17 14 14
138 82 52 76 85 65 5 70 267 97 251 239 232 228 224 218 207 216 220 221 220 216 217 215 216 216 218 221 223 225 234 248 267 323 344 357 4 3 3 4 9 10 11 11 10 7 7 6 0
135 84 56 55 65 21 227 131 266 194 214 228 222 222 219 214 215 219 222 220 220 218 220 220 221 225 226 230 233 237 244 257 272 293 305 313 320 333 340 345 350 357 359 0 359 357 354 351 346
63 57 351 357 5 223 164 55 247 241 226 214 208 217 214 209 210 214 217 217 219 218 218 220 224 229 228 233 237 242 251 257 265 271 280 289 303 314 323 326 330 335 344 345 345 345 344 340 334
157 145 155 215 232 265 353 239 248 218 222 214 217 213 205 207 208 211 216 219 221 221 221 222 225 231 231 234 238 241 247 250 258 266 273 281 285 295 303 308 312 317 321 328 331 334 333 330 325
196 182 135 99 76 36 227 278 290 229 256 219 220 212 213 209 206 208 214 220 223 224 223 224 225 231 232 234 238 241 245 249 256 264 268 275 280 287 294 299 303 304 309 314 319 323 325 322 319
183 152 72 2 278 288 279 282 241 249 228 221 223 219 218 210 208 209 208 214 221 223 224 226 228 232 234 237 239 242 246 251 258 263 268 276 285 286 290 291 295 294 296 302 307 313 316 315 315
151 205 65 128 149 192 260 256 217 222 204 207 221 222 212 208 209 207 210 213 219 222 224 226 228 231 234 237 240 243 246 251 258 263 270 277 285 287 287 289 289 288 289 296 299 305 309 311 310
249 219 167 139 232 229 177 264 251 230 226 207 224 223 217 210 209 209 208 208 215 222 224 226 229 232 235 240 242 245 249 251 257 264 274 280 282 283 285 288 285 282 284 291 295 300 305 307 307